Hourly Data Report for March 12, 2017

All times are specified in Local Standard Time (LST). Add 1 hour to adjust for Daylight Saving Time where and when it is observed.

TORONTO CITY
ONTARIO

43°40'00.000" N
79°24'00.000" W
112.50 m
6158355
71508
XTO

Download Data

Hourly Data (March 2017)
Hourly Data Report for March 12, 2017
TIME Temp Definition
°C
Dew Point Definition
°C
Rel Hum Definition
%
Wind Dir Definition
10's deg

Wind Spd Definition
km/h
Visibility Definition
km
Stn Press Definition
kPa
Hmdx Definition


Wind Chill Definition


Weather Definition


00:00 -10.4 -15.6 66 LegendMM LegendMM   101.41     LegendNANA
01:00 -10.6 -16.0 64 LegendMM LegendMM   101.40     LegendNANA
02:00 -10.8 -18.1 55 LegendMM LegendMM   101.44     LegendNANA
03:00 -10.8 -18.6 53 LegendMM LegendMM   101.43     LegendNANA
04:00 -11.2 -20.1 48 LegendMM LegendMM   101.48     LegendNANA
05:00 -11.8 -21.5 45 LegendMM LegendMM   101.52     LegendNANA
06:00 -12.3 -23.0 40 LegendMM LegendMM   101.54     LegendNANA
07:00 -12.3 -23.1 40 LegendMM LegendMM   101.57     LegendNANA
08:00 -12.0 -22.2 42 LegendMM LegendMM   101.60     LegendNANA
09:00 -11.4 -21.5 43 LegendMM LegendMM   101.64     LegendNANA
10:00 -10.5 -19.9 46 LegendMM LegendMM   101.61     LegendNANA
11:00 -8.5 -18.2 45 LegendMM LegendMM   101.60     LegendNANA
12:00 -7.1 -16.6 46 LegendMM LegendMM   101.60     LegendNANA
13:00 -6.4 -14.9 51 LegendMM LegendMM   101.58     LegendNANA
14:00 -4.9 -13.7 50 LegendMM LegendMM   101.53     LegendNANA
15:00 -5.1 -14.2 49 LegendMM LegendMM   101.51     LegendNANA
16:00 -4.4 -16.0 40 LegendMM LegendMM   101.49     LegendNANA
17:00 -4.4 -18.0 34 LegendMM LegendMM   101.52     LegendNANA
18:00 -5.5 -17.5 38 LegendMM LegendMM   101.63     LegendNANA
19:00 -6.2 -16.0 46 LegendMM LegendMM   101.70     LegendNANA
20:00 -7.0 -15.6 50 LegendMM LegendMM   101.70     LegendNANA
21:00 -7.5 -16.3 49 LegendMM LegendMM   101.70     LegendNANA
22:00 -8.1 -17.0 49 LegendMM LegendMM   101.75     LegendNANA
23:00 -8.6 -16.2 54 LegendMM LegendMM   101.77     LegendNANA

Notes on Data Quality.

Legend

  • E = Estimated
  • M = Missing
  • NA = Not Available
Date modified: